Flag Weather past 2 weeks in Caledon, Ontario, Canada

Now
30 °F

Overcast.


Feels Like: 23 °F
Forecast: 27 / 35 °F
Wind: 7 mph from Southwest

Location: Borden

Current Time: Nov 26, 2014 at 6:22:45 AM

Latest Report: Nov 26, 2014 at 5:00 AM


Visibility: 9 mi

Pressure: 30.20 "Hg

Humidity: 80%

Dew point: 25 °F

Location of CaledonLocation

Historic Weather in Caledon — Graph

°F

Caledon temperature yesterday

Maximum temperature yesterday: 39 °F (at 12:00 AM)
Minimum temperature yesterday: 32 °F (at 7:00 PM)
Average temperature yesterday: 35 °F

Past Weeks' High & Low Weather Summary

 TemperatureHumidityPressure
High63 °F (Nov 11, 1:00 PM)100% (Nov 11, 5:02 AM)30.42 "Hg (Nov 11, 5:02 AM)
Low12 °F (Nov 21, 7:00 AM)45% (Nov 13, 1:00 PM)29.09 "Hg (Nov 24, 1:55 PM)
Average32 °F79%29.89 "Hg
* Reported Nov 11 5:02 AM — Nov 26 5:00 AM, Caledon, Weather by CustomWeather, © 2014

Note: Actual official high and low records may vary slightly from our data, if they occured in-between our weather recording intervals... More about our weather records

Advertising

Caledon weather history for previous 24 hours

 ConditionsComfort  
Time TempWeatherWind HumidityBarometerVisibility
5:00 AM
Nov 26
30 °FOvercast.7 mph80%30.20 "Hg9 mi
4:00 AM32 °FOvercast.2 mph75%30.21 "Hg9 mi
3:00 AM30 °FOvercast.2 mph86%30.20 "Hg9 mi
2:00 AM30 °FOvercast.2 mph86%30.22 "Hg9 mi
1:00 AM30 °FOvercast.5 mph86%30.21 "Hg9 mi
12:00 AM30 °FOvercast.3 mph80%30.20 "Hg9 mi
11:00 PM
Nov 25
32 °FOvercast.6 mph75%30.18 "Hg9 mi
10:00 PM32 °FOvercast.3 mph75%30.14 "Hg9 mi
9:00 PM32 °FOvercast.7 mph75%30.13 "Hg9 mi
8:00 PM32 °FOvercast.8 mph75%30.10 "Hg9 mi
7:00 PM32 °FLight snow. Overcast.6 mph80%30.06 "Hg9 mi
6:00 PM34 °FOvercast.10 mph70%30.01 "Hg9 mi
5:00 PM34 °FOvercast.9 mph70%29.99 "Hg9 mi
4:00 PM34 °FPartly sunny.15 mph70%29.96 "Hg9 mi
3:00 PM34 °FOvercast.20 mph70%29.93 "Hg9 mi
2:00 PM36 °FOvercast.14 mph65%29.90 "Hg9 mi
1:00 PM36 °FOvercast.23 mph65%29.86 "Hg9 mi
12:00 PM34 °FOvercast.17 mph70%29.86 "Hg9 mi
11:04 AM34 °FLight rain. Overcast.16 mph81%29.82 "Hg8 mi
11:01 AM34 °FLight snow. Overcast.16 mph81%29.82 "Hg9 mi
10:00 AM34 °FLight rain. Overcast.8 mph87%29.81 "Hg8 mi
9:54 AM34 °FLight rain. Overcast.8 mph87%29.79 "Hg9 mi
9:00 AM36 °FOvercast.13 mph75%29.79 "Hg9 mi
8:00 AM36 °FOvercast.13 mph75%29.76 "Hg9 mi
7:00 AM36 °FOvercast.12 mph81%29.73 "Hg9 mi
6:00 AM36 °FOvercast.14 mph81%29.71 "Hg9 mi
Weather by CustomWeather, © 2014

See weather overviewHow to use our weather pages